Location: Newark
(22.3000°N, 114.2000°E)
Time: 03:00:29
(UTC+00:00)

OTV 5 (USA 277) - Visible Passes

Search period start: 20 October 2019 00:00
Search period end: 30 October 2019 00:00
Orbit: 310 x 324 km, 54.5° (Epoch: 17 October)

Date Brightness Start Highest point End Pass type
(mag) Time Alt. Az. Time Alt. Az. Time Alt. Az.
20 Oct ? 21:47:47 10° N 21:49:52 19° NE 21:51:55 10° E visible
22 Oct ? 20:44:03 10° NE 20:44:37 11° NE 20:45:22 10° ENE visible
23 Oct ? 11:20:20 10° SSW 11:20:21 10° SSW 11:20:21 10° SSW visible
23 Oct ? 20:59:08 37° NE 20:59:15 37° NE 21:01:48 10° ESE visible
24 Oct ? 11:34:44 10° SW 11:35:31 17° WSW 11:35:31 17° WSW visible
24 Oct ? 21:14:18 33° SSW 21:14:18 33° SSW 21:16:18 10° SSE visible
25 Oct ? 10:15:51 10° SSE 10:17:44 17° ESE 10:19:38 10° ENE visible
26 Oct ? 10:29:28 10° SW 10:32:10 84° ESE 10:34:37 12° NE visible
27 Oct ? 10:44:35 10° WSW 10:46:43 20° NW 10:48:50 10° N visible
